Погода в Коста-ду-Сауипе

Бразилия     12°59′54″S   38°30′26″W
темп.,
°C
ветер,
м/с
пор.,
м/с
влажн.,
%
обл.,
%
осадки,
мм/ч
давл.,
гПа
погр.,
м
27 февраля, сб
сб2700:00+27в577434 1.3 1012576
03:00+27всв677634 2.5 1011612
06:00+27в577526 2.2 1012711
09:00+27в567425 3.9 1014824
12:00+27вюв677435 0.9 1013782
15:00+27вюв787536 0.9 1010754
18:00+27вюв787854 0.0 1011959
21:00+27вюв677569 0.0 1012807
28 февраля, вс
вс2800:00+27вюв56750 0.0 1012858
03:00+26вюв447913 0.8 1010606
06:00+26в337657 2.8 1011324
09:00+26ссв127270 5.4 1013539
12:00+27ююв44711 0.1 1011677
15:00+28юв67718 0.1 1009822
18:00+28вюв567434 0.1 1009948
21:00+27в677460 0.4 1011972
1 марта, пн
пн100:00+27в4574100 0.3 1010637
03:00+27всв227490 0.8 1009571
06:00+26в12779 2.6 1010212
09:00+27в577446 6.5 1012821
12:00+27вюв9107676 3.1 1011942
15:00+27вюв9107743 4.8 1010840
18:00+27вюв897711 0.3 1010991
21:00+27вюв887426 0.4 10121154
2 марта, вт
вт200:00+27в787239 0.1 10121260
03:00+26в457053 0.1 1011946
06:00+26в45744 1.1 1012745
09:00+27вюв66736 1.6 1014903
12:00+27вюв676948 0.2 1014784
15:00+27вюв786826 0.2 1011973
18:00+27вюв78660 0.0 10121066
21:00+27вюв78752 0.0 10141178
3 марта, ср
ср300:00+27в677415 0.1 10141082
03:00+26всв45737 0.1 1013932
06:00+26в347425 0.0 1014818
09:00+26в237038 0.1 1016860
12:00+27юв446885 0.0 1016900
15:00+27юв567162 0.0 1013868
18:00+27вюв67770 0.0 1013866
21:00+27вюв77780 0.1 1014872